{"data":{"norad_id":65754,"epoch":"2026-09-19T10:13:42.672576Z","epoch_age_seconds":201310,"freshness":"STALE","line1":"1 65754U 25216W   26262.42618834  .00014229  00000+0  43144-3 0  9993","line2":"2 65754  53.1582 151.0112 0001534  57.0265 303.0885 15.34402113 56194","mean_motion":15.34402113,"eccentricity":0.0001534,"inclination_deg":53.1582,"raan_deg":151.0112,"arg_perigee_deg":57.0265,"mean_anomaly_deg":303.0885,"bstar":0.00043144,"rev_number":5619,"period_min":93.847628845125,"perigee_km":461.64757600356,"apogee_km":463.74634386247,"semimajor_km":6840.833959933,"source":"CELESTRAK","updated_at":"2026-09-21T09:00:35.711179Z"}}